Weather in Kungur

Russia / Perm Krai     57°25′43″N   56°56′39″E
temp.,
°C
wind,
m/s
gust,
m/s
humid.,
%
clouds,
%
prec.,
mm/h
press.,
hPa
HPBL,
m
7 may, fri
fri723:00+6wsw34660 0.0 101642
02:00+6sw33769 0.0 101729
05:00+5ssw3586100 0.0 101867
08:00+9ssw51076100 0.0 1017300
11:00+16sw68595 0.0 1017779
14:00+20sw684199 0.0 10172648
17:00+16ssw4105999 0.0 1017374
20:00+15ssw386875 0.0 1017230
8 may, sat
sat823:00+11ssw3776100 0.0 1017111
02:00+12s3474100 0.0 101769
05:00+11s2277100 0.0 101832
08:00+13ssw2570100 0.0 1018224
11:00+17sw345091 0.0 1018966
14:00+19sw4442100 0.0 10172372
17:00+18nw2345100 0.0 10171416
20:00+15n226788 0.1 101744
9 may, sun
sun923:00+12e226785 0.1 101811
02:00+11ese227326 0.0 101818
05:00+10e11748 0.0 101810
08:00+14e23667 0.0 1019200
11:00+18ese34505 0.0 1018821
14:00+21se353650 0.0 10182553
17:00+21e34342 0.0 10182111
20:00+19ne33485 0.0 101839
10 may, mon
mon1023:00+13se410636 0.0 1019193
02:00+12se38714 0.0 1020122
05:00+10se22735 0.0 102220
08:00+15sse375892 0.0 1023251
11:00+20sse34415 0.0 10231040
14:00+22s343635 0.0 10222147
17:00+22ssw343531 0.0 10222321
20:00+18wsw3554100 0.0 102281
11 may, tue
tue1123:00+16w3356100 0.0 102234
02:00+13n2589100 0.0 1023161
05:00+12nw2492100 0.4 1024318
08:00+11nnw588667 0.3 1026552
11:00+13nnw566671 0.3 10271011
14:00+15nnw565314 0.0 10271332
17:00+17nnw56335 0.0 10271531
20:00+14nnw58445 0.0 1027237